User: anonymous
Location: Deep South Regional Star Gaze
(30.9929°N, 90.9586°W)
Time: 03:24:27
(UTC-05:00)
Language:

H-2A R/B - Orbit

View from above orbital plane
View from above orbital plane
View from above satellite
View from above satellite

Ground track
Ground track

The orbit data is extracted from the following two-line orbital elements,

1 26899U 01038B   14113.70292351  .00000844  00000-0  54082-3 0  9623
2 26899 027.9166 168.3271 7139093 152.8519 336.5670 02.43649630108206
Epoch (UTC): 23 April 2014 16:52:12
Eccentricity: 0.7139093
inclination: 27.9166°
perigee height: 296 km
apogee height: 33605 km
right ascension of ascending node: 168.3271°
argument of perigee: 152.8519°
revolutions per day: 2.43649630
mean anomaly at epoch: 336.5670°
orbit number at epoch: 10820

The dashed part of the orbit path shows where the satellite is in the earth's shadow,  

DLR